Year,Month,Day,Hour,Minute,Value (Times are PST for windgust in km/hr)
2024,02,25,05,46,35.40
2024,02,25,05,47,45.10
2024,02,25,05,48,43.50
2024,02,25,05,49,32.20
2024,02,25,05,50,46.70
2024,02,25,05,51,35.40
2024,02,25,05,52,40.20
2024,02,25,05,53,32.20
2024,02,25,05,54,46.70
2024,02,25,05,55,40.20
2024,02,25,05,56,48.30
2024,02,25,05,57,40.20
2024,02,25,05,58,41.80
2024,02,25,05,59,41.80
2024,02,25,06,00,45.10
2024,02,25,06,01,45.10
2024,02,25,06,02,41.80
2024,02,25,06,03,46.70
2024,02,25,06,04,38.60
2024,02,25,06,05,41.80
2024,02,25,06,06,46.70
2024,02,25,06,07,33.80
2024,02,25,06,08,37.00
2024,02,25,06,09,33.80
2024,02,25,06,10,43.50
2024,02,25,06,11,48.30
2024,02,25,06,12,41.80
2024,02,25,06,13,40.20
2024,02,25,06,14,38.60
2024,02,25,06,15,46.70
2024,02,25,06,16,43.50
2024,02,25,06,17,38.60
2024,02,25,06,18,35.40
2024,02,25,06,19,43.50
2024,02,25,06,20,38.60
2024,02,25,06,21,33.80
2024,02,25,06,22,43.50
2024,02,25,06,23,45.10
2024,02,25,06,24,43.50
2024,02,25,06,25,41.80
2024,02,25,06,26,38.60
2024,02,25,06,27,32.20
2024,02,25,06,28,43.50
2024,02,25,06,29,40.20
2024,02,25,06,30,35.40
2024,02,25,06,31,37.00
2024,02,25,06,32,35.40
2024,02,25,06,33,41.80
2024,02,25,06,34,38.60
2024,02,25,06,35,35.40
2024,02,25,06,36,37.00
2024,02,25,06,37,43.50
2024,02,25,06,38,33.80
2024,02,25,06,39,37.00
2024,02,25,06,40,35.40
2024,02,25,06,41,41.80
2024,02,25,06,42,41.80
2024,02,25,06,43,35.40
2024,02,25,06,44,33.80
2024,02,25,06,45,32.20
2024,02,25,06,46,27.40
2024,02,25,06,47,45.10
2024,02,25,06,48,43.50
2024,02,25,06,49,41.80
2024,02,25,06,50,30.60
2024,02,25,06,51,24.20
2024,02,25,06,52,30.60
2024,02,25,06,53,37.00
2024,02,25,06,54,40.20
2024,02,25,06,55,41.80
2024,02,25,06,56,35.40
2024,02,25,06,57,37.00
2024,02,25,06,58,40.20
2024,02,25,06,59,38.60
2024,02,25,07,00,32.20
2024,02,25,07,01,38.60
2024,02,25,07,02,37.00
2024,02,25,07,03,35.40
2024,02,25,07,04,32.20
2024,02,25,07,05,25.70
2024,02,25,07,06,27.40
2024,02,25,07,07,27.40
2024,02,25,07,08,30.60
2024,02,25,07,09,46.70
2024,02,25,07,10,37.00
2024,02,25,07,11,30.60
2024,02,25,07,12,32.20
2024,02,25,07,13,38.60
2024,02,25,07,14,33.80
2024,02,25,07,15,33.80
2024,02,25,07,16,41.80
2024,02,25,07,17,43.50
2024,02,25,07,18,40.20
2024,02,25,07,19,45.10
2024,02,25,07,20,30.60
2024,02,25,07,21,33.80
2024,02,25,07,22,37.00
2024,02,25,07,23,35.40
2024,02,25,07,24,33.80
2024,02,25,07,25,33.80
2024,02,25,07,26,37.00
2024,02,25,07,27,43.50
2024,02,25,07,28,43.50
2024,02,25,07,29,38.60
2024,02,25,07,30,35.40
2024,02,25,07,31,33.80
2024,02,25,07,32,37.00
2024,02,25,07,33,38.60
2024,02,25,07,34,30.60
2024,02,25,07,35,37.00
2024,02,25,07,36,41.80
2024,02,25,07,37,32.20
2024,02,25,07,38,43.50
2024,02,25,07,39,40.20
2024,02,25,07,40,30.60
2024,02,25,07,41,29.00
2024,02,25,07,42,48.30
2024,02,25,07,43,35.40
2024,02,25,07,44,41.80
2024,02,25,07,45,27.40
2024,02,25,07,46,33.80
2024,02,25,07,47,37.00
2024,02,25,07,48,40.20
2024,02,25,07,49,46.70
2024,02,25,07,50,37.00
2024,02,25,07,51,32.20
2024,02,25,07,52,29.00
2024,02,25,07,53,33.80
2024,02,25,07,54,37.00
2024,02,25,07,55,41.80
2024,02,25,07,56,37.00
2024,02,25,07,57,35.40
2024,02,25,07,58,38.60
2024,02,25,07,59,35.40
2024,02,25,08,00,37.00
2024,02,25,08,01,37.00
2024,02,25,08,02,40.20
2024,02,25,08,03,37.00
2024,02,25,08,04,41.80
2024,02,25,08,05,41.80
2024,02,25,08,06,43.50
2024,02,25,08,07,38.60
2024,02,25,08,08,35.40
2024,02,25,08,09,45.10
2024,02,25,08,10,38.60
2024,02,25,08,11,45.10
2024,02,25,08,12,41.80
2024,02,25,08,13,43.50
2024,02,25,08,14,43.50
2024,02,25,08,15,46.70
2024,02,25,08,16,49.90
2024,02,25,08,17,35.40
2024,02,25,08,18,37.00
2024,02,25,08,19,48.30
2024,02,25,08,20,46.70
2024,02,25,08,21,29.00
2024,02,25,08,22,38.60
2024,02,25,08,23,38.60
2024,02,25,08,24,35.40
2024,02,25,08,25,38.60
2024,02,25,08,26,33.80
2024,02,25,08,27,43.50
2024,02,25,08,28,33.80
2024,02,25,08,29,37.00
2024,02,25,08,30,33.80
2024,02,25,08,31,37.00
2024,02,25,08,32,45.10
2024,02,25,08,33,38.60
2024,02,25,08,34,37.00
2024,02,25,08,35,40.20
2024,02,25,08,36,33.80
2024,02,25,08,37,33.80
2024,02,25,08,38,33.80
2024,02,25,08,39,38.60
2024,02,25,08,40,48.30
2024,02,25,08,41,35.40
2024,02,25,08,42,38.60
2024,02,25,08,43,40.20
2024,02,25,08,44,35.40
2024,02,25,08,45,37.00
2024,02,25,08,46,38.60
2024,02,25,08,47,43.50
2024,02,25,08,48,40.20
2024,02,25,08,49,46.70
2024,02,25,08,50,41.80
2024,02,25,08,51,51.50
2024,02,25,08,52,37.00
2024,02,25,08,53,46.70
2024,02,25,08,54,46.70
2024,02,25,08,55,37.00
2024,02,25,08,56,43.50
2024,02,25,08,57,38.60
2024,02,25,08,58,40.20
2024,02,25,08,59,35.40
2024,02,25,09,00,35.40
2024,02,25,09,01,37.00
2024,02,25,09,02,35.40
2024,02,25,09,03,27.40
2024,02,25,09,04,27.40
2024,02,25,09,05,32.20
2024,02,25,09,06,37.00
2024,02,25,09,07,41.80
2024,02,25,09,08,25.70
2024,02,25,09,09,37.00
2024,02,25,09,10,37.00
2024,02,25,09,11,33.80
2024,02,25,09,12,38.60
2024,02,25,09,13,43.50
2024,02,25,09,14,32.20
2024,02,25,09,15,33.80
2024,02,25,09,16,33.80
2024,02,25,09,17,30.60
2024,02,25,09,18,32.20
2024,02,25,09,19,27.40
2024,02,25,09,20,40.20
2024,02,25,09,21,37.00
2024,02,25,09,22,48.30
2024,02,25,09,23,37.00
2024,02,25,09,24,53.10
2024,02,25,09,25,37.00
2024,02,25,09,26,37.00
2024,02,25,09,27,33.80
2024,02,25,09,28,35.40
2024,02,25,09,29,37.00
2024,02,25,09,30,41.80
2024,02,25,09,31,43.50
2024,02,25,09,32,35.40
2024,02,25,09,33,38.60
2024,02,25,09,34,35.40
2024,02,25,09,35,37.00
2024,02,25,09,36,40.20
2024,02,25,09,37,33.80
2024,02,25,09,38,32.20
2024,02,25,09,39,33.80
2024,02,25,09,40,33.80
2024,02,25,09,41,30.60
2024,02,25,09,42,33.80
2024,02,25,09,43,30.60
2024,02,25,09,44,25.70
2024,02,25,09,45,29.00
2024,02,25,09,46,33.80
2024,02,25,09,47,27.40
2024,02,25,09,48,19.30
2024,02,25,09,49,22.50
2024,02,25,09,50,25.70
2024,02,25,09,51,32.20
2024,02,25,09,52,32.20
2024,02,25,09,53,25.70
2024,02,25,09,54,33.80
2024,02,25,09,55,20.90
2024,02,25,09,56,29.00
2024,02,25,09,57,20.90
2024,02,25,09,58,27.40
2024,02,25,09,59,24.20
2024,02,25,10,00,30.60
2024,02,25,10,01,27.40
2024,02,25,10,02,27.40
2024,02,25,10,03,29.00
2024,02,25,10,04,35.40
2024,02,25,10,05,30.60
2024,02,25,10,06,33.80
2024,02,25,10,07,37.00
2024,02,25,10,08,33.80
2024,02,25,10,09,35.40
2024,02,25,10,10,35.40
2024,02,25,10,11,22.50
2024,02,25,10,12,38.60
2024,02,25,10,13,46.70
2024,02,25,10,14,35.40
2024,02,25,10,15,49.90
2024,02,25,10,16,51.50
2024,02,25,10,17,51.50
2024,02,25,10,18,30.60
2024,02,25,10,19,24.20
2024,02,25,10,20,32.20
2024,02,25,10,21,37.00
2024,02,25,10,22,25.70
2024,02,25,10,23,22.50
2024,02,25,10,24,22.50
2024,02,25,10,25,16.10
2024,02,25,10,26,30.60
2024,02,25,10,27,20.90
2024,02,25,10,28,17.70
2024,02,25,10,29,27.40
2024,02,25,10,30,20.90
2024,02,25,10,31,22.50
2024,02,25,10,32,33.80
2024,02,25,10,33,33.80
2024,02,25,10,34,24.20
2024,02,25,10,35,41.80
2024,02,25,10,36,30.60
2024,02,25,10,37,25.70
2024,02,25,10,38,22.50
2024,02,25,10,39,30.60
2024,02,25,10,40,24.20
2024,02,25,10,41,29.00
2024,02,25,10,42,24.20
2024,02,25,10,43,20.90
2024,02,25,10,44,24.20
2024,02,25,10,45,22.50
2024,02,25,10,46,30.60
2024,02,25,10,47,22.50
2024,02,25,10,48,19.30
2024,02,25,10,49,20.90
2024,02,25,10,50,32.20
2024,02,25,10,51,24.20
2024,02,25,10,52,33.80
2024,02,25,10,53,27.40
2024,02,25,10,54,22.50
2024,02,25,10,55,25.70
2024,02,25,10,56,25.70
2024,02,25,10,57,24.20
2024,02,25,10,58,29.00
2024,02,25,10,59,14.50
2024,02,25,11,00,25.70
2024,02,25,11,01,16.10
2024,02,25,11,02,17.70
2024,02,25,11,03,24.20
2024,02,25,11,04,25.70
2024,02,25,11,05,14.50
2024,02,25,11,06,22.50
2024,02,25,11,07,24.20
2024,02,25,11,08,17.70
2024,02,25,11,09,32.20
2024,02,25,11,10,29.00
2024,02,25,11,11,25.70
2024,02,25,11,12,24.20
2024,02,25,11,13,25.70
2024,02,25,11,14,27.40
2024,02,25,11,15,19.30
2024,02,25,11,16,25.70
2024,02,25,11,17,25.70
2024,02,25,11,18,25.70
2024,02,25,11,19,20.90
2024,02,25,11,20,25.70
2024,02,25,11,21,25.70
2024,02,25,11,22,24.20
2024,02,25,11,23,17.70
2024,02,25,11,24,27.40
2024,02,25,11,25,24.20
2024,02,25,11,26,30.60
2024,02,25,11,27,22.50
2024,02,25,11,28,25.70
2024,02,25,11,29,27.40
2024,02,25,11,30,25.70
2024,02,25,11,31,29.00
2024,02,25,11,32,30.60
2024,02,25,11,33,24.20
2024,02,25,11,34,29.00
2024,02,25,11,35,22.50
2024,02,25,11,36,20.90
2024,02,25,11,37,33.80
2024,02,25,11,38,20.90
2024,02,25,11,39,27.40
2024,02,25,11,40,37.00
2024,02,25,11,41,22.50
2024,02,25,11,42,24.20
2024,02,25,11,43,24.20
2024,02,25,11,44,25.70
2024,02,25,11,45,22.50
2024,02,25,11,46,22.50
2024,02,25,11,47,22.50
2024,02,25,11,48,22.50
2024,02,25,11,49,22.50
2024,02,25,11,50,19.30
2024,02,25,11,51,22.50
2024,02,25,11,52,29.00
2024,02,25,11,53,27.40
2024,02,25,11,54,22.50
2024,02,25,11,55,25.70
2024,02,25,11,56,25.70
2024,02,25,11,57,17.70
2024,02,25,11,58,24.20
2024,02,25,11,59,25.70
2024,02,25,12,00,20.90
2024,02,25,12,01,19.30
2024,02,25,12,02,20.90
2024,02,25,12,03,19.30
2024,02,25,12,04,19.30
2024,02,25,12,05,22.50
2024,02,25,12,06,25.70
2024,02,25,12,07,30.60
2024,02,25,12,08,24.20
2024,02,25,12,09,24.20
2024,02,25,12,10,27.40
2024,02,25,12,11,41.80
2024,02,25,12,12,29.00
2024,02,25,12,13,30.60
2024,02,25,12,14,29.00
2024,02,25,12,15,38.60
2024,02,25,12,16,29.00
2024,02,25,12,17,22.50
2024,02,25,12,18,35.40
2024,02,25,12,19,38.60
2024,02,25,12,20,35.40
2024,02,25,12,21,29.00
2024,02,25,12,22,32.20
2024,02,25,12,23,33.80
2024,02,25,12,24,25.70
2024,02,25,12,25,27.40
2024,02,25,12,26,25.70
2024,02,25,12,27,29.00
2024,02,25,12,28,33.80
2024,02,25,12,29,41.80
2024,02,25,12,30,49.90
2024,02,25,12,31,43.50
2024,02,25,12,32,25.70
2024,02,25,12,33,25.70
2024,02,25,12,34,37.00
2024,02,25,12,35,33.80
2024,02,25,12,36,37.00
2024,02,25,12,37,45.10
2024,02,25,12,38,51.50
2024,02,25,12,39,46.70
2024,02,25,12,40,33.80
2024,02,25,12,41,35.40
2024,02,25,12,42,35.40
2024,02,25,12,43,37.00
2024,02,25,12,44,27.40
2024,02,25,12,45,20.90
2024,02,25,12,46,25.70
2024,02,25,12,47,46.70
2024,02,25,12,48,56.30
2024,02,25,12,49,32.20
2024,02,25,12,50,35.40
2024,02,25,12,51,38.60
2024,02,25,12,52,46.70
2024,02,25,12,53,56.30
2024,02,25,12,54,57.90
2024,02,25,12,55,49.90
2024,02,25,12,56,43.50
2024,02,25,12,57,33.80
2024,02,25,12,58,43.50
2024,02,25,12,59,41.80
2024,02,25,13,00,46.70
2024,02,25,13,01,32.20
2024,02,25,13,02,33.80
2024,02,25,13,03,25.70
2024,02,25,13,04,45.10
2024,02,25,13,05,46.70
2024,02,25,13,06,43.50
2024,02,25,13,07,35.40
2024,02,25,13,08,27.40
2024,02,25,13,09,35.40
2024,02,25,13,10,30.60
2024,02,25,13,11,30.60
2024,02,25,13,12,29.00
2024,02,25,13,13,20.90
2024,02,25,13,14,25.70
2024,02,25,13,15,37.00
2024,02,25,13,16,33.80
2024,02,25,13,17,38.60
2024,02,25,13,18,43.50
2024,02,25,13,19,30.60
2024,02,25,13,20,30.60
2024,02,25,13,21,30.60
2024,02,25,13,22,33.80
2024,02,25,13,23,37.00
2024,02,25,13,24,35.40
2024,02,25,13,25,30.60
2024,02,25,13,26,33.80
2024,02,25,13,27,30.60
2024,02,25,13,28,33.80
2024,02,25,13,29,24.20
2024,02,25,13,30,22.50
2024,02,25,13,31,27.40
2024,02,25,13,32,29.00
2024,02,25,13,33,19.30
2024,02,25,13,34,29.00
2024,02,25,13,35,27.40
2024,02,25,13,36,32.20
2024,02,25,13,37,29.00
2024,02,25,13,38,38.60
2024,02,25,13,39,43.50
2024,02,25,13,40,41.80
2024,02,25,13,41,35.40
2024,02,25,13,42,51.50
2024,02,25,13,43,41.80
2024,02,25,13,44,41.80
2024,02,25,13,45,41.80
2024,02,25,13,46,38.60
2024,02,25,13,47,33.80
2024,02,25,13,48,29.00
2024,02,25,13,49,29.00
2024,02,25,13,50,37.00
2024,02,25,13,51,29.00
2024,02,25,13,52,40.20
2024,02,25,13,53,33.80
2024,02,25,13,54,27.40
2024,02,25,13,55,25.70
2024,02,25,13,56,38.60
2024,02,25,13,57,30.60
2024,02,25,13,58,37.00
2024,02,25,13,59,35.40
2024,02,25,14,00,33.80
2024,02,25,14,01,32.20
2024,02,25,14,02,43.50
2024,02,25,14,03,29.00
2024,02,25,14,04,41.80
2024,02,25,14,05,27.40
2024,02,25,14,06,24.20
2024,02,25,14,07,38.60
2024,02,25,14,08,37.00
2024,02,25,14,09,43.50
2024,02,25,14,10,35.40
2024,02,25,14,11,33.80
2024,02,25,14,12,37.00
2024,02,25,14,13,37.00
2024,02,25,14,14,46.70
2024,02,25,14,15,35.40
2024,02,25,14,16,32.20
2024,02,25,14,17,30.60
2024,02,25,14,18,32.20
2024,02,25,14,19,32.20
2024,02,25,14,20,32.20
2024,02,25,14,21,53.10
2024,02,25,14,22,54.70
2024,02,25,14,23,53.10
2024,02,25,14,24,43.50
2024,02,25,14,25,43.50
2024,02,25,14,26,46.70
2024,02,25,14,27,54.70
2024,02,25,14,28,48.30
2024,02,25,14,29,53.10
2024,02,25,14,30,29.00
2024,02,25,14,31,64.40
2024,02,25,14,32,45.10
2024,02,25,14,33,27.40
2024,02,25,14,34,38.60
2024,02,25,14,35,29.00
2024,02,25,14,36,29.00
2024,02,25,14,37,46.70
2024,02,25,14,38,38.60
2024,02,25,14,39,51.50
2024,02,25,14,40,41.80
2024,02,25,14,41,49.90
2024,02,25,14,42,51.50
2024,02,25,14,43,33.80
2024,02,25,14,44,22.50
2024,02,25,14,45,24.20
2024,02,25,14,46,29.00
2024,02,25,14,47,27.40
2024,02,25,14,48,27.40
2024,02,25,14,49,38.60
2024,02,25,14,50,53.10
2024,02,25,14,51,41.80
2024,02,25,14,52,70.80
2024,02,25,14,53,57.90
2024,02,25,14,54,40.20
2024,02,25,14,55,40.20
2024,02,25,14,56,41.80
2024,02,25,14,57,59.50
2024,02,25,14,58,53.10
2024,02,25,14,59,57.90
2024,02,25,15,00,53.10
2024,02,25,15,01,59.50
2024,02,25,15,02,57.90
2024,02,25,15,03,51.50
2024,02,25,15,04,53.10
2024,02,25,15,05,49.90
2024,02,25,15,06,35.40
2024,02,25,15,07,48.30
2024,02,25,15,08,54.70
2024,02,25,15,09,64.40
2024,02,25,15,10,53.10
2024,02,25,15,11,33.80
2024,02,25,15,12,37.00
2024,02,25,15,13,33.80
2024,02,25,15,14,41.80
2024,02,25,15,15,40.20
2024,02,25,15,16,22.50
2024,02,25,15,17,27.40
2024,02,25,15,18,45.10
2024,02,25,15,19,37.00
2024,02,25,15,20,37.00
2024,02,25,15,21,37.00
2024,02,25,15,22,53.10
2024,02,25,15,23,37.00
2024,02,25,15,24,40.20
2024,02,25,15,25,27.40
2024,02,25,15,26,32.20
2024,02,25,15,27,30.60
2024,02,25,15,28,30.60
2024,02,25,15,29,33.80
2024,02,25,15,30,30.60
2024,02,25,15,31,24.20
2024,02,25,15,32,51.50
2024,02,25,15,33,38.60
2024,02,25,15,34,49.90
2024,02,25,15,35,41.80
2024,02,25,15,36,35.40
2024,02,25,15,37,53.10
2024,02,25,15,38,53.10
2024,02,25,15,39,41.80
2024,02,25,15,40,53.10
2024,02,25,15,41,43.50
2024,02,25,15,42,46.70
2024,02,25,15,43,41.80
2024,02,25,15,44,45.10
2024,02,25,15,45,33.80
2024,02,25,15,46,54.70
2024,02,25,15,47,49.90
2024,02,25,15,48,56.30
2024,02,25,15,49,54.70
2024,02,25,15,50,49.90
2024,02,25,15,51,37.00
2024,02,25,15,52,38.60
2024,02,25,15,53,37.00
2024,02,25,15,54,32.20
2024,02,25,15,55,37.00
2024,02,25,15,56,32.20
2024,02,25,15,57,30.60
2024,02,25,15,58,57.90
2024,02,25,15,59,57.90
2024,02,25,16,00,37.00
2024,02,25,16,01,45.10
2024,02,25,16,02,48.30
2024,02,25,16,03,25.70
2024,02,25,16,04,53.10
2024,02,25,16,05,27.40
2024,02,25,16,06,32.20
2024,02,25,16,07,43.50
2024,02,25,16,08,41.80
2024,02,25,16,09,33.80
2024,02,25,16,10,29.00
2024,02,25,16,11,25.70
2024,02,25,16,12,38.60
2024,02,25,16,13,29.00
2024,02,25,16,14,35.40
2024,02,25,16,15,35.40
2024,02,25,16,16,41.80
2024,02,25,16,17,33.80
2024,02,25,16,18,35.40
2024,02,25,16,19,37.00
2024,02,25,16,20,53.10
2024,02,25,16,21,45.10
2024,02,25,16,22,43.50
2024,02,25,16,23,43.50
2024,02,25,16,24,38.60
2024,02,25,16,25,29.00
2024,02,25,16,26,46.70
2024,02,25,16,27,29.00
2024,02,25,16,28,27.40
2024,02,25,16,29,43.50
2024,02,25,16,30,53.10
2024,02,25,16,31,54.70
2024,02,25,16,32,38.60
2024,02,25,16,33,43.50
2024,02,25,16,34,40.20
2024,02,25,16,35,35.40
2024,02,25,16,36,48.30
2024,02,25,16,37,41.80
2024,02,25,16,38,32.20
2024,02,25,16,39,33.80
2024,02,25,16,40,48.30
2024,02,25,16,41,37.00
2024,02,25,16,42,43.50
2024,02,25,16,43,40.20
2024,02,25,16,44,48.30
2024,02,25,16,45,53.10
2024,02,25,16,46,37.00
2024,02,25,16,47,46.70
2024,02,25,16,48,49.90
2024,02,25,16,49,35.40
2024,02,25,16,50,32.20
2024,02,25,16,51,29.00
2024,02,25,16,52,29.00
2024,02,25,16,53,33.80
2024,02,25,16,54,29.00
2024,02,25,16,55,32.20
2024,02,25,16,56,48.30
2024,02,25,16,57,49.90
2024,02,25,16,58,48.30
2024,02,25,16,59,37.00
2024,02,25,17,00,29.00
2024,02,25,17,01,40.20
2024,02,25,17,02,48.30
2024,02,25,17,03,27.40
2024,02,25,17,04,37.00
2024,02,25,17,05,51.50
2024,02,25,17,06,49.90
2024,02,25,17,07,40.20
2024,02,25,17,08,43.50
2024,02,25,17,09,35.40
2024,02,25,17,10,32.20
2024,02,25,17,11,27.40
2024,02,25,17,12,29.00
2024,02,25,17,13,40.20
2024,02,25,17,14,45.10
2024,02,25,17,15,37.00
2024,02,25,17,16,41.80
2024,02,25,17,17,43.50
2024,02,25,17,18,40.20
2024,02,25,17,19,41.80
2024,02,25,17,20,48.30
2024,02,25,17,21,46.70
2024,02,25,17,22,41.80
2024,02,25,17,23,46.70
2024,02,25,17,24,49.90
2024,02,25,17,25,41.80
2024,02,25,17,26,35.40
2024,02,25,17,27,46.70
2024,02,25,17,28,41.80
2024,02,25,17,29,33.80
2024,02,25,17,30,27.40
2024,02,25,17,31,35.40
2024,02,25,17,32,38.60
2024,02,25,17,33,24.20
2024,02,25,17,34,24.20
2024,02,25,17,35,33.80
2024,02,25,17,36,35.40
2024,02,25,17,37,32.20
2024,02,25,17,38,32.20
2024,02,25,17,39,41.80
2024,02,25,17,40,33.80
2024,02,25,17,41,37.00
2024,02,25,17,42,33.80
2024,02,25,17,43,35.40
2024,02,25,17,44,45.10
2024,02,25,17,45,37.00
2024,02,25,17,46,35.40
2024,02,25,17,47,43.50
2024,02,25,17,48,29.00
2024,02,25,17,49,27.40
2024,02,25,17,50,25.70
2024,02,25,17,51,29.00
2024,02,25,17,52,37.00
2024,02,25,17,53,45.10
2024,02,25,17,54,38.60
2024,02,25,17,55,37.00
2024,02,25,17,56,33.80
2024,02,25,17,57,38.60
2024,02,25,17,58,38.60
2024,02,25,17,59,40.20
2024,02,25,18,00,45.10
2024,02,25,18,01,40.20
2024,02,25,18,02,40.20
2024,02,25,18,03,38.60
2024,02,25,18,04,41.80
2024,02,25,18,05,41.80
2024,02,25,18,06,32.20
2024,02,25,18,07,32.20
2024,02,25,18,08,33.80
2024,02,25,18,09,41.80
2024,02,25,18,10,32.20
2024,02,25,18,11,45.10
2024,02,25,18,12,43.50
2024,02,25,18,13,43.50
2024,02,25,18,14,45.10
2024,02,25,18,15,37.00
2024,02,25,18,16,41.80
2024,02,25,18,17,43.50
2024,02,25,18,18,51.50
2024,02,25,18,19,64.40
2024,02,25,18,20,54.70
2024,02,25,18,21,45.10
2024,02,25,18,22,57.90
2024,02,25,18,23,45.10
2024,02,25,18,24,41.80
2024,02,25,18,25,49.90
2024,02,25,18,26,48.30
2024,02,25,18,27,40.20
2024,02,25,18,28,46.70
2024,02,25,18,29,33.80
2024,02,25,18,30,35.40
2024,02,25,18,31,25.70
2024,02,25,18,32,33.80
2024,02,25,18,33,29.00
2024,02,25,18,34,25.70
2024,02,25,18,35,38.60
2024,02,25,18,36,27.40
2024,02,25,18,37,32.20
2024,02,25,18,38,32.20
2024,02,25,18,39,35.40
2024,02,25,18,40,48.30
2024,02,25,18,41,40.20
2024,02,25,18,42,37.00
2024,02,25,18,43,38.60
2024,02,25,18,44,46.70
2024,02,25,18,45,40.20
2024,02,25,18,46,30.60
2024,02,25,18,47,29.00
2024,02,25,18,48,43.50
2024,02,25,18,49,35.40
2024,02,25,18,50,40.20
2024,02,25,18,51,30.60
2024,02,25,18,52,27.40
2024,02,25,18,53,38.60
2024,02,25,18,54,40.20
2024,02,25,18,55,37.00
2024,02,25,18,56,30.60
2024,02,25,18,57,30.60
2024,02,25,18,58,29.00
2024,02,25,18,59,27.40
2024,02,25,19,00,22.50
2024,02,25,19,01,29.00
2024,02,25,19,02,33.80
2024,02,25,19,03,29.00
2024,02,25,19,04,25.70
2024,02,25,19,05,30.60
2024,02,25,19,06,37.00
2024,02,25,19,07,32.20
2024,02,25,19,08,32.20
2024,02,25,19,09,27.40
2024,02,25,19,10,29.00
2024,02,25,19,11,27.40
2024,02,25,19,12,35.40
2024,02,25,19,13,33.80
2024,02,25,19,14,46.70
2024,02,25,19,15,46.70
2024,02,25,19,16,53.10
2024,02,25,19,17,38.60
2024,02,25,19,18,40.20
2024,02,25,19,19,45.10
2024,02,25,19,20,43.50
2024,02,25,19,21,53.10
2024,02,25,19,22,41.80
2024,02,25,19,23,41.80
2024,02,25,19,24,48.30
2024,02,25,19,25,43.50
2024,02,25,19,26,43.50
2024,02,25,19,27,43.50
2024,02,25,19,28,37.00
2024,02,25,19,29,46.70
2024,02,25,19,30,43.50
2024,02,25,19,31,32.20
2024,02,25,19,32,38.60
2024,02,25,19,33,38.60
2024,02,25,19,34,35.40
2024,02,25,19,35,35.40
2024,02,25,19,36,32.20
2024,02,25,19,37,32.20
2024,02,25,19,38,30.60
2024,02,25,19,39,45.10
2024,02,25,19,40,40.20
2024,02,25,19,41,51.50
2024,02,25,19,42,40.20
2024,02,25,19,43,41.80
2024,02,25,19,44,35.40
2024,02,25,19,45,38.60
2024,02,25,19,46,38.60
2024,02,25,19,47,30.60
2024,02,25,19,48,32.20
2024,02,25,19,49,37.00
2024,02,25,19,50,38.60
2024,02,25,19,51,49.90
2024,02,25,19,52,43.50
2024,02,25,19,53,40.20
2024,02,25,19,54,37.00
2024,02,25,19,55,53.10
2024,02,25,19,56,46.70
2024,02,25,19,57,41.80
2024,02,25,19,58,48.30
2024,02,25,19,59,40.20
2024,02,25,20,00,41.80
2024,02,25,20,01,41.80
2024,02,25,20,02,43.50
2024,02,25,20,03,37.00
2024,02,25,20,04,53.10
2024,02,25,20,05,51.50
2024,02,25,20,06,48.30
2024,02,25,20,07,35.40
2024,02,25,20,08,41.80
2024,02,25,20,09,41.80
2024,02,25,20,10,40.20
2024,02,25,20,11,37.00
2024,02,25,20,12,30.60
2024,02,25,20,13,49.90
2024,02,25,20,14,48.30
2024,02,25,20,15,48.30
2024,02,25,20,16,38.60
2024,02,25,20,17,37.00
2024,02,25,20,18,53.10
2024,02,25,20,19,49.90
2024,02,25,20,20,40.20
2024,02,25,20,21,38.60
2024,02,25,20,22,49.90
2024,02,25,20,23,37.00
2024,02,25,20,24,38.60
2024,02,25,20,25,35.40
2024,02,25,20,26,35.40
2024,02,25,20,27,49.90
2024,02,25,20,28,48.30
2024,02,25,20,29,35.40
2024,02,25,20,30,45.10
2024,02,25,20,31,33.80
2024,02,25,20,32,29.00
2024,02,25,20,33,27.40
2024,02,25,20,34,30.60
2024,02,25,20,35,35.40
2024,02,25,20,36,30.60
2024,02,25,20,37,38.60
2024,02,25,20,38,41.80
2024,02,25,20,39,43.50
2024,02,25,20,40,30.60
2024,02,25,20,41,32.20
2024,02,25,20,42,27.40
2024,02,25,20,43,24.20
2024,02,25,20,44,33.80
2024,02,25,20,45,29.00
2024,02,25,20,46,33.80
2024,02,25,20,47,29.00
2024,02,25,20,48,38.60
2024,02,25,20,49,32.20
2024,02,25,20,50,32.20
2024,02,25,20,51,48.30
2024,02,25,20,52,37.00
2024,02,25,20,53,38.60
2024,02,25,20,54,40.20
2024,02,25,20,55,37.00
2024,02,25,20,56,57.90
2024,02,25,20,57,64.40
2024,02,25,20,58,53.10
2024,02,25,20,59,51.50
2024,02,25,21,00,35.40
2024,02,25,21,01,41.80
2024,02,25,21,02,51.50
2024,02,25,21,03,41.80
2024,02,25,21,04,33.80
2024,02,25,21,05,41.80
2024,02,25,21,06,41.80
2024,02,25,21,07,40.20
2024,02,25,21,08,37.00
2024,02,25,21,09,40.20
2024,02,25,21,10,38.60
2024,02,25,21,11,37.00
2024,02,25,21,12,40.20
2024,02,25,21,13,32.20
2024,02,25,21,14,35.40
2024,02,25,21,15,27.40
2024,02,25,21,16,30.60
2024,02,25,21,17,32.20
2024,02,25,21,18,33.80
2024,02,25,21,19,24.20
2024,02,25,21,20,30.60
2024,02,25,21,21,30.60
2024,02,25,21,22,30.60
2024,02,25,21,23,27.40
2024,02,25,21,24,41.80
2024,02,25,21,25,38.60
2024,02,25,21,26,37.00
2024,02,25,21,27,29.00
2024,02,25,21,28,35.40
2024,02,25,21,29,35.40
2024,02,25,21,30,40.20
2024,02,25,21,31,38.60
2024,02,25,21,32,41.80
2024,02,25,21,33,30.60
2024,02,25,21,34,22.50
2024,02,25,21,35,27.40
2024,02,25,21,36,29.00
2024,02,25,21,37,22.50
2024,02,25,21,38,27.40
2024,02,25,21,39,38.60
2024,02,25,21,40,29.00
2024,02,25,21,41,37.00
2024,02,25,21,42,33.80
2024,02,25,21,43,32.20
2024,02,25,21,44,38.60
2024,02,25,21,45,38.60
2024,02,25,21,46,41.80
2024,02,25,21,47,45.10
2024,02,25,21,48,46.70
2024,02,25,21,49,49.90
2024,02,25,21,50,37.00
2024,02,25,21,51,40.20
2024,02,25,21,52,41.80
2024,02,25,21,53,38.60
2024,02,25,21,54,25.70
2024,02,25,21,55,32.20
2024,02,25,21,56,24.20
2024,02,25,21,57,27.40
2024,02,25,21,58,22.50
2024,02,25,21,59,32.20
2024,02,25,22,00,29.00
2024,02,25,22,01,22.50
2024,02,25,22,02,22.50
2024,02,25,22,03,32.20
2024,02,25,22,04,22.50
2024,02,25,22,05,25.70
2024,02,25,22,06,22.50
2024,02,25,22,07,24.20
2024,02,25,22,08,24.20
2024,02,25,22,09,27.40
2024,02,25,22,10,22.50
2024,02,25,22,11,20.90
2024,02,25,22,12,32.20
2024,02,25,22,13,32.20
2024,02,25,22,14,29.00
2024,02,25,22,15,29.00
2024,02,25,22,16,29.00
2024,02,25,22,17,25.70
2024,02,25,22,18,29.00
2024,02,25,22,19,25.70
2024,02,25,22,20,27.40
2024,02,25,22,21,24.20
2024,02,25,22,22,29.00
2024,02,25,22,23,29.00
2024,02,25,22,24,27.40
2024,02,25,22,25,29.00
2024,02,25,22,26,30.60
2024,02,25,22,27,29.00
2024,02,25,22,28,24.20
2024,02,25,22,29,30.60
2024,02,25,22,30,24.20
2024,02,25,22,31,27.40
2024,02,25,22,32,27.40
2024,02,25,22,33,25.70
2024,02,25,22,34,29.00
2024,02,25,22,35,30.60
2024,02,25,22,36,30.60
2024,02,25,22,37,29.00
2024,02,25,22,38,35.40
2024,02,25,22,39,35.40
2024,02,25,22,40,24.20
2024,02,25,22,41,37.00
2024,02,25,22,42,35.40
2024,02,25,22,43,33.80
2024,02,25,22,44,27.40
2024,02,25,22,45,33.80
2024,02,25,22,46,25.70
2024,02,25,22,47,30.60
2024,02,25,22,48,24.20
2024,02,25,22,49,24.20
2024,02,25,22,50,22.50
2024,02,25,22,51,27.40
2024,02,25,22,52,29.00
2024,02,25,22,53,19.30
2024,02,25,22,54,22.50
2024,02,25,22,55,19.30
2024,02,25,22,56,16.10
2024,02,25,22,57,19.30
2024,02,25,22,58,19.30
2024,02,25,22,59,19.30
2024,02,25,23,00,16.10
2024,02,25,23,01,17.70
2024,02,25,23,02,14.50
2024,02,25,23,03,17.70
2024,02,25,23,04,19.30
2024,02,25,23,05,19.30